owner,sensor,date,latitude,longitude,air_pressure(mBar),qcFlag 
TABS,ioos:station:wmo:42044:1,2015-06-01T00:00:00Z,26.1914,-97.0507,1016.05,11111222 
TABS,ioos:station:wmo:42044:1,2015-06-01T00:30:00Z,26.1914,-97.0507,1016.19,11111222 
TABS,ioos:station:wmo:42044:1,2015-06-01T01:00:00Z,26.1914,-97.0507,1016.47,11111222 
TABS,ioos:station:wmo:42044:1,2015-06-01T01:30:00Z,26.1914,-97.0507,1016.48,11111222 
TABS,ioos:station:wmo:42044:1,2015-06-01T02:00:00Z,26.1914,-97.0507,1016.56,11111222 
TABS,ioos:station:wmo:42044:1,2015-06-01T02:30:00Z,26.1914,-97.0507,1016.56,11111222 
TABS,ioos:station:wmo:42044:1,2015-06-01T03:00:00Z,26.1914,-97.0507,1016.63,11111222 
TABS,ioos:station:wmo:42044:1,2015-06-01T03:30:00Z,26.1914,-97.0507,1016.82,11111222 
TABS,ioos:station:wmo:42044:1,2015-06-01T04:00:00Z,26.1914,-97.0507,1016.91,11111222 
TABS,ioos:station:wmo:42044:1,2015-06-01T04:30:00Z,26.1914,-97.0507,1016.8,11111222 
TABS,ioos:station:wmo:42044:1,2015-06-01T05:00:00Z,26.1914,-97.0507,1016.89,11111222 
TABS,ioos:station:wmo:42044:1,2015-06-01T05:30:00Z,26.1914,-97.0507,1016.75,11111222 
TABS,ioos:station:wmo:42044:1,2015-06-01T06:00:00Z,26.1914,-97.0507,1016.5,11111222 
TABS,ioos:station:wmo:42044:1,2015-06-01T06:30:00Z,26.1914,-97.0507,1016.35,11111222 
TABS,ioos:station:wmo:42044:1,2015-06-01T07:00:00Z,26.1914,-97.0507,1016.07,11111222 
TABS,ioos:station:wmo:42044:1,2015-06-01T07:30:00Z,26.1914,-97.0507,1015.86,11111222 
TABS,ioos:station:wmo:42044:1,2015-06-01T08:00:00Z,26.1914,-97.0507,1015.62,11111222 
TABS,ioos:station:wmo:42044:1,2015-06-01T08:30:00Z,26.1914,-97.0507,1015.52,11111222 
TABS,ioos:station:wmo:42044:1,2015-06-01T09:00:00Z,26.1914,-97.0507,1015.41,11111222 
TABS,ioos:station:wmo:42044:1,2015-06-01T09:30:00Z,26.1914,-97.0507,1015.36,11111222 
TABS,ioos:station:wmo:42044:1,2015-06-01T10:00:00Z,26.1914,-97.0507,1015.58,11111222 
TABS,ioos:station:wmo:42044:1,2015-06-01T10:30:00Z,26.1914,-97.0507,1015.55,11111222 
TABS,ioos:station:wmo:42044:1,2015-06-01T11:00:00Z,26.1914,-97.0507,1015.75,11111222 
TABS,ioos:station:wmo:42044:1,2015-06-01T11:30:00Z,26.1914,-97.0507,1016.11,11111222 
TABS,ioos:station:wmo:42044:1,2015-06-01T12:00:00Z,26.1914,-97.0507,1016.39,11111222 
TABS,ioos:station:wmo:42044:1,2015-06-01T12:30:00Z,26.1914,-97.0507,1016.65,11111222 
TABS,ioos:station:wmo:42044:1,2015-06-01T13:00:00Z,26.1914,-97.0507,1016.96,11111222 
TABS,ioos:station:wmo:42044:1,2015-06-01T13:30:00Z,26.1914,-97.0507,1017.21,11111222 
TABS,ioos:station:wmo:42044:1,2015-06-01T14:00:00Z,26.1914,-97.0507,1017.28,11111222 
TABS,ioos:station:wmo:42044:1,2015-06-01T14:30:00Z,26.1914,-97.0507,1017.64,11111222 
TABS,ioos:station:wmo:42044:1,2015-06-01T15:00:00Z,26.1914,-97.0507,1017.95,11111222 
TABS,ioos:station:wmo:42044:1,2015-06-01T15:30:00Z,26.1914,-97.0507,1018.02,11111222 
TABS,ioos:station:wmo:42044:1,2015-06-01T16:00:00Z,26.1914,-97.0507,1018.17,11111222 
TABS,ioos:station:wmo:42044:1,2015-06-01T16:30:00Z,26.1914,-97.0507,1018.1,11111222 
TABS,ioos:station:wmo:42044:1,2015-06-01T17:00:00Z,26.1914,-97.0507,1018.11,11111222 
TABS,ioos:station:wmo:42044:1,2015-06-01T17:30:00Z,26.1914,-97.0507,1017.82,11111222 
TABS,ioos:station:wmo:42044:1,2015-06-01T18:00:00Z,26.1914,-97.0507,1017.83,11111222 
TABS,ioos:station:wmo:42044:1,2015-06-01T18:30:00Z,26.1914,-97.0507,1017.46,11111222 
TABS,ioos:station:wmo:42044:1,2015-06-01T19:00:00Z,26.1914,-97.0507,1017.22,11111222 
TABS,ioos:station:wmo:42044:1,2015-06-01T19:30:00Z,26.1914,-97.0507,1017.11,11111222 
TABS,ioos:station:wmo:42044:1,2015-06-01T20:00:00Z,26.1914,-97.0507,1016.84,11111222 
TABS,ioos:station:wmo:42044:1,2015-06-01T20:30:00Z,26.1914,-97.0507,1016.79,11111222 
TABS,ioos:station:wmo:42044:1,2015-06-01T21:00:00Z,26.1914,-97.0507,1016.52,11111222 
TABS,ioos:station:wmo:42044:1,2015-06-01T21:30:00Z,26.1914,-97.0507,1016.3,11111222 
TABS,ioos:station:wmo:42044:1,2015-06-01T22:00:00Z,26.1914,-97.0507,1016.05,11111222 
TABS,ioos:station:wmo:42044:1,2015-06-01T22:30:00Z,26.1914,-97.0507,1015.83,11111222 
TABS,ioos:station:wmo:42044:1,2015-06-01T23:00:00Z,26.1914,-97.0507,1015.63,11111222 
TABS,ioos:station:wmo:42044:1,2015-06-01T23:30:00Z,26.1914,-97.0507,1015.78,11111222 
TABS,ioos:station:wmo:42044:1,2015-06-02T00:00:00Z,26.1914,-97.0507,1015.92,11111222 
TABS,ioos:station:wmo:42044:1,2015-06-02T00:30:00Z,26.1914,-97.0507,1015.83,11111222 
TABS,ioos:station:wmo:42044:1,2015-06-02T01:00:00Z,26.1914,-97.0507,1015.83,11111222 
TABS,ioos:station:wmo:42044:1,2015-06-02T01:30:00Z,26.1914,-97.0507,1015.74,11111222 
TABS,ioos:station:wmo:42044:1,2015-06-02T02:00:00Z,26.1914,-97.0507,1015.75,11111222 
TABS,ioos:station:wmo:42044:1,2015-06-02T02:30:00Z,26.1914,-97.0507,1016.07,11111222 
TABS,ioos:station:wmo:42044:1,2015-06-02T03:00:00Z,26.1914,-97.0507,1016.17,11111222 
TABS,ioos:station:wmo:42044:1,2015-06-02T03:30:00Z,26.1914,-97.0507,1016.39,11111222 
TABS,ioos:station:wmo:42044:1,2015-06-02T04:00:00Z,26.1914,-97.0507,1016.57,11111222 
TABS,ioos:station:wmo:42044:1,2015-06-02T04:30:00Z,26.1914,-97.0507,1016.59,11111222 
TABS,ioos:station:wmo:42044:1,2015-06-02T05:00:00Z,26.1914,-97.0507,1016.43,11111222 
TABS,ioos:station:wmo:42044:1,2015-06-02T05:30:00Z,26.1914,-97.0507,1016.26,11111222 
TABS,ioos:station:wmo:42044:1,2015-06-02T06:00:00Z,26.1914,-97.0507,1015.73,11111222 
TABS,ioos:station:wmo:42044:1,2015-06-02T06:30:00Z,26.1914,-97.0507,1015.61,11111222 
TABS,ioos:station:wmo:42044:1,2015-06-02T07:00:00Z,26.1914,-97.0507,1015.35,11111222 
TABS,ioos:station:wmo:42044:1,2015-06-02T07:30:00Z,26.1914,-97.0507,1015.14,11111222 
TABS,ioos:station:wmo:42044:1,2015-06-02T08:00:00Z,26.1914,-97.0507,1015.23,11111222 
TABS,ioos:station:wmo:42044:1,2015-06-02T08:30:00Z,26.1914,-97.0507,1015.06,11111222 
TABS,ioos:station:wmo:42044:1,2015-06-02T09:00:00Z,26.1914,-97.0507,1015.05,11111222 
TABS,ioos:station:wmo:42044:1,2015-06-02T09:30:00Z,26.1914,-97.0507,1015.19,11111222 
TABS,ioos:station:wmo:42044:1,2015-06-02T10:00:00Z,26.1914,-97.0507,1015.11,11111222 
TABS,ioos:station:wmo:42044:1,2015-06-02T10:30:00Z,26.1914,-97.0507,1015.18,11111222 
TABS,ioos:station:wmo:42044:1,2015-06-02T11:00:00Z,26.1914,-97.0507,1015.13,11111222 
TABS,ioos:station:wmo:42044:1,2015-06-02T11:30:00Z,26.1914,-97.0507,1015.3,11111222 
TABS,ioos:station:wmo:42044:1,2015-06-02T12:00:00Z,26.1914,-97.0507,1015.57,11111222 
TABS,ioos:station:wmo:42044:1,2015-06-02T12:30:00Z,26.1914,-97.0507,1015.65,11111222 
TABS,ioos:station:wmo:42044:1,2015-06-02T13:00:00Z,26.1914,-97.0507,1015.71,11111222 
TABS,ioos:station:wmo:42044:1,2015-06-02T13:30:00Z,26.1914,-97.0507,1016.0,11111222 
TABS,ioos:station:wmo:42044:1,2015-06-02T14:00:00Z,26.1914,-97.0507,1016.16,11111222 
TABS,ioos:station:wmo:42044:1,2015-06-02T14:30:00Z,26.1914,-97.0507,1016.16,11111222 
TABS,ioos:station:wmo:42044:1,2015-06-02T15:00:00Z,26.1914,-97.0507,1016.05,11111222 
TABS,ioos:station:wmo:42044:1,2015-06-02T15:30:00Z,26.1914,-97.0507,1015.96,11111222 
TABS,ioos:station:wmo:42044:1,2015-06-02T16:00:00Z,26.1914,-97.0507,1015.98,11111222 
TABS,ioos:station:wmo:42044:1,2015-06-02T16:30:00Z,26.1914,-97.0507,1016.07,11111222 
TABS,ioos:station:wmo:42044:1,2015-06-02T17:00:00Z,26.1914,-97.0507,1016.08,11111222 
TABS,ioos:station:wmo:42044:1,2015-06-02T17:30:00Z,26.1914,-97.0507,1016.01,11111222 
TABS,ioos:station:wmo:42044:1,2015-06-02T18:00:00Z,26.1914,-97.0507,1016.0,11111222 
TABS,ioos:station:wmo:42044:1,2015-06-02T18:30:00Z,26.1914,-97.0507,1015.76,11111222 
TABS,ioos:station:wmo:42044:1,2015-06-02T19:00:00Z,26.1914,-97.0507,1015.24,11111222 
TABS,ioos:station:wmo:42044:1,2015-06-02T19:30:00Z,26.1914,-97.0507,1014.98,11111222 
TABS,ioos:station:wmo:42044:1,2015-06-02T20:00:00Z,26.1914,-97.0507,1014.59,11111222 
TABS,ioos:station:wmo:42044:1,2015-06-02T20:30:00Z,26.1914,-97.0507,1014.12,11111222 
TABS,ioos:station:wmo:42044:1,2015-06-02T21:00:00Z,26.1914,-97.0507,1013.83,11111222 
TABS,ioos:station:wmo:42044:1,2015-06-02T21:30:00Z,26.1914,-97.0507,1013.51,11111222 
TABS,ioos:station:wmo:42044:1,2015-06-02T22:00:00Z,26.1914,-97.0507,1013.32,11111222 
TABS,ioos:station:wmo:42044:1,2015-06-02T22:30:00Z,26.1914,-97.0507,1013.04,11111222 
TABS,ioos:station:wmo:42044:1,2015-06-02T23:00:00Z,26.1914,-97.0507,1012.96,11111222 
TABS,ioos:station:wmo:42044:1,2015-06-02T23:30:00Z,26.1914,-97.0507,1012.79,11111222 
TABS,ioos:station:wmo:42044:1,2015-06-03T00:00:00Z,26.1914,-97.0507,1012.7,11111222 
TABS,ioos:station:wmo:42044:1,2015-06-03T00:30:00Z,26.1914,-97.0507,1012.61,11111222 
TABS,ioos:station:wmo:42044:1,2015-06-03T01:00:00Z,26.1914,-97.0507,1012.83,11111222 
TABS,ioos:station:wmo:42044:1,2015-06-03T01:30:00Z,26.1914,-97.0507,1012.9,11111222 
TABS,ioos:station:wmo:42044:1,2015-06-03T02:00:00Z,26.1914,-97.0507,1012.85,11111222 
TABS,ioos:station:wmo:42044:1,2015-06-03T02:30:00Z,26.1914,-97.0507,1013.19,11111222 
TABS,ioos:station:wmo:42044:1,2015-06-03T03:00:00Z,26.1914,-97.0507,1013.65,11111222 
TABS,ioos:station:wmo:42044:1,2015-06-03T03:30:00Z,26.1914,-97.0507,1013.86,11111222 
TABS,ioos:station:wmo:42044:1,2015-06-03T04:00:00Z,26.1914,-97.0507,1013.7,11111222 
TABS,ioos:station:wmo:42044:1,2015-06-03T04:30:00Z,26.1914,-97.0507,1013.98,11111222 
TABS,ioos:station:wmo:42044:1,2015-06-03T05:00:00Z,26.1914,-97.0507,1013.72,11111222 
TABS,ioos:station:wmo:42044:1,2015-06-03T05:30:00Z,26.1914,-97.0507,1013.37,11111222 
TABS,ioos:station:wmo:42044:1,2015-06-03T06:00:00Z,26.1914,-97.0507,1013.34,11111222 
TABS,ioos:station:wmo:42044:1,2015-06-03T06:30:00Z,26.1914,-97.0507,1013.03,11111222 
TABS,ioos:station:wmo:42044:1,2015-06-03T07:00:00Z,26.1914,-97.0507,1012.86,11111222 
TABS,ioos:station:wmo:42044:1,2015-06-03T07:30:00Z,26.1914,-97.0507,1012.6,11111222 
TABS,ioos:station:wmo:42044:1,2015-06-03T08:00:00Z,26.1914,-97.0507,1012.47,11111222 
TABS,ioos:station:wmo:42044:1,2015-06-03T08:30:00Z,26.1914,-97.0507,1012.08,11111222 
TABS,ioos:station:wmo:42044:1,2015-06-03T09:00:00Z,26.1914,-97.0507,1012.02,11111222 
TABS,ioos:station:wmo:42044:1,2015-06-03T09:30:00Z,26.1914,-97.0507,1012.04,11111222 
TABS,ioos:station:wmo:42044:1,2015-06-03T10:00:00Z,26.1914,-97.0507,1012.0,11111222 
TABS,ioos:station:wmo:42044:1,2015-06-03T10:30:00Z,26.1914,-97.0507,1011.9,11111222 
TABS,ioos:station:wmo:42044:1,2015-06-03T11:00:00Z,26.1914,-97.0507,1012.09,11111222 
TABS,ioos:station:wmo:42044:1,2015-06-03T11:30:00Z,26.1914,-97.0507,1012.05,11111222 
TABS,ioos:station:wmo:42044:1,2015-06-03T12:00:00Z,26.1914,-97.0507,1012.34,11111222 
TABS,ioos:station:wmo:42044:1,2015-06-03T12:30:00Z,26.1914,-97.0507,1012.31,11111222 
TABS,ioos:station:wmo:42044:1,2015-06-03T13:00:00Z,26.1914,-97.0507,1012.49,11111222 
TABS,ioos:station:wmo:42044:1,2015-06-03T13:30:00Z,26.1914,-97.0507,1012.54,11111222 
TABS,ioos:station:wmo:42044:1,2015-06-03T14:00:00Z,26.1914,-97.0507,1012.7,11111222 
TABS,ioos:station:wmo:42044:1,2015-06-03T14:30:00Z,26.1914,-97.0507,1012.86,11111222 
TABS,ioos:station:wmo:42044:1,2015-06-03T15:00:00Z,26.1914,-97.0507,1013.07,11111222 
TABS,ioos:station:wmo:42044:1,2015-06-03T15:30:00Z,26.1914,-97.0507,1012.96,11111222 
TABS,ioos:station:wmo:42044:1,2015-06-03T16:00:00Z,26.1914,-97.0507,1013.18,11111222 
TABS,ioos:station:wmo:42044:1,2015-06-03T16:30:00Z,26.1914,-97.0507,1013.24,11111222 
TABS,ioos:station:wmo:42044:1,2015-06-03T17:00:00Z,26.1914,-97.0507,1013.39,11111222 
TABS,ioos:station:wmo:42044:1,2015-06-03T17:30:00Z,26.1914,-97.0507,1013.18,11111222 
TABS,ioos:station:wmo:42044:1,2015-06-03T18:00:00Z,26.1914,-97.0507,1013.03,11111222 
TABS,ioos:station:wmo:42044:1,2015-06-03T18:30:00Z,26.1914,-97.0507,1012.84,11111222 
TABS,ioos:station:wmo:42044:1,2015-06-03T19:00:00Z,26.1914,-97.0507,1012.42,11111222 
TABS,ioos:station:wmo:42044:1,2015-06-03T19:30:00Z,26.1914,-97.0507,1012.22,11111222 
TABS,ioos:station:wmo:42044:1,2015-06-03T20:00:00Z,26.1914,-97.0507,1011.98,11111222 
TABS,ioos:station:wmo:42044:1,2015-06-03T20:30:00Z,26.1914,-97.0507,1011.77,11111222 
TABS,ioos:station:wmo:42044:1,2015-06-03T21:00:00Z,26.1914,-97.0507,1011.48,11111222 
TABS,ioos:station:wmo:42044:1,2015-06-03T21:30:00Z,26.1914,-97.0507,1011.37,11111222 
TABS,ioos:station:wmo:42044:1,2015-06-03T22:00:00Z,26.1914,-97.0507,1011.27,11111222 
TABS,ioos:station:wmo:42044:1,2015-06-03T22:30:00Z,26.1914,-97.0507,1011.26,11111222 
TABS,ioos:station:wmo:42044:1,2015-06-03T23:00:00Z,26.1914,-97.0507,1010.98,11111222 
TABS,ioos:station:wmo:42044:1,2015-06-03T23:30:00Z,26.1914,-97.0507,1010.92,11111222 
TABS,ioos:station:wmo:42044:1,2015-06-04T00:00:00Z,26.1914,-97.0507,1010.72,11111222 
TABS,ioos:station:wmo:42044:1,2015-06-04T00:30:00Z,26.1914,-97.0507,1011.01,11111222 
TABS,ioos:station:wmo:42044:1,2015-06-04T01:00:00Z,26.1914,-97.0507,1011.2,11111222 
TABS,ioos:station:wmo:42044:1,2015-06-04T01:30:00Z,26.1914,-97.0507,1011.45,11111222 
TABS,ioos:station:wmo:42044:1,2015-06-04T02:00:00Z,26.1914,-97.0507,1011.69,11111222 
TABS,ioos:station:wmo:42044:1,2015-06-04T02:30:00Z,26.1914,-97.0507,1011.99,11111222 
TABS,ioos:station:wmo:42044:1,2015-06-04T03:00:00Z,26.1914,-97.0507,1012.25,11111222 
TABS,ioos:station:wmo:42044:1,2015-06-04T03:30:00Z,26.1914,-97.0507,1012.56,11111222 
TABS,ioos:station:wmo:42044:1,2015-06-04T04:00:00Z,26.1914,-97.0507,1012.65,11111222 
TABS,ioos:station:wmo:42044:1,2015-06-04T04:30:00Z,26.1914,-97.0507,1012.88,11111222 
TABS,ioos:station:wmo:42044:1,2015-06-04T05:00:00Z,26.1914,-97.0507,1012.74,11111222 
TABS,ioos:station:wmo:42044:1,2015-06-04T05:30:00Z,26.1914,-97.0507,1012.67,11111222 
TABS,ioos:station:wmo:42044:1,2015-06-04T06:00:00Z,26.1914,-97.0507,1012.57,11111222 
TABS,ioos:station:wmo:42044:1,2015-06-04T06:30:00Z,26.1914,-97.0507,1012.41,11111222 
TABS,ioos:station:wmo:42044:1,2015-06-04T07:00:00Z,26.1914,-97.0507,1012.24,11111222 
TABS,ioos:station:wmo:42044:1,2015-06-04T07:30:00Z,26.1914,-97.0507,1012.03,11111222 
TABS,ioos:station:wmo:42044:1,2015-06-04T08:00:00Z,26.1914,-97.0507,1011.85,11111222 
TABS,ioos:station:wmo:42044:1,2015-06-04T08:30:00Z,26.1914,-97.0507,1011.58,11111222 
TABS,ioos:station:wmo:42044:1,2015-06-04T09:00:00Z,26.1914,-97.0507,1011.56,11111222 
TABS,ioos:station:wmo:42044:1,2015-06-04T09:30:00Z,26.1914,-97.0507,1011.17,11111222 
TABS,ioos:station:wmo:42044:1,2015-06-04T10:00:00Z,26.1914,-97.0507,1011.31,11111222 
TABS,ioos:station:wmo:42044:1,2015-06-04T10:30:00Z,26.1914,-97.0507,1011.57,11111222 
TABS,ioos:station:wmo:42044:1,2015-06-04T11:00:00Z,26.1914,-97.0507,1011.64,11111222 
TABS,ioos:station:wmo:42044:1,2015-06-04T11:30:00Z,26.1914,-97.0507,1011.81,11111222 
TABS,ioos:station:wmo:42044:1,2015-06-04T12:00:00Z,26.1914,-97.0507,1012.14,11111222 
TABS,ioos:station:wmo:42044:1,2015-06-04T12:30:00Z,26.1914,-97.0507,1012.45,11111222 
TABS,ioos:station:wmo:42044:1,2015-06-04T13:00:00Z,26.1914,-97.0507,1012.54,11111222 
TABS,ioos:station:wmo:42044:1,2015-06-04T13:30:00Z,26.1914,-97.0507,1012.95,11111222 
TABS,ioos:station:wmo:42044:1,2015-06-04T14:00:00Z,26.1914,-97.0507,1013.08,11111222 
TABS,ioos:station:wmo:42044:1,2015-06-04T14:30:00Z,26.1914,-97.0507,1013.17,11111222 
TABS,ioos:station:wmo:42044:1,2015-06-04T15:00:00Z,26.1914,-97.0507,1013.62,11111222 
TABS,ioos:station:wmo:42044:1,2015-06-04T15:30:00Z,26.1914,-97.0507,1013.72,11111222 
TABS,ioos:station:wmo:42044:1,2015-06-04T16:00:00Z,26.1914,-97.0507,1013.89,11111222 
TABS,ioos:station:wmo:42044:1,2015-06-04T16:30:00Z,26.1914,-97.0507,1014.03,11111222 
TABS,ioos:station:wmo:42044:1,2015-06-04T17:00:00Z,26.1914,-97.0507,1014.19,11111222 
TABS,ioos:station:wmo:42044:1,2015-06-04T17:30:00Z,26.1914,-97.0507,1014.11,11111222 
TABS,ioos:station:wmo:42044:1,2015-06-04T18:00:00Z,26.1914,-97.0507,1014.18,11111222 
TABS,ioos:station:wmo:42044:1,2015-06-04T18:30:00Z,26.1914,-97.0507,1013.97,11111222 
TABS,ioos:station:wmo:42044:1,2015-06-04T19:00:00Z,26.1914,-97.0507,1013.91,11111222 
TABS,ioos:station:wmo:42044:1,2015-06-04T19:30:00Z,26.1914,-97.0507,1013.9,11111222 
TABS,ioos:station:wmo:42044:1,2015-06-04T20:00:00Z,26.1914,-97.0507,1013.93,11111222 
TABS,ioos:station:wmo:42044:1,2015-06-04T20:30:00Z,26.1914,-97.0507,1013.84,11111222 
TABS,ioos:station:wmo:42044:1,2015-06-04T21:00:00Z,26.1914,-97.0507,1013.64,11111222 
TABS,ioos:station:wmo:42044:1,2015-06-04T21:30:00Z,26.1914,-97.0507,1013.77,11111222 
TABS,ioos:station:wmo:42044:1,2015-06-04T22:00:00Z,26.1914,-97.0507,1013.34,11111222 
TABS,ioos:station:wmo:42044:1,2015-06-04T22:30:00Z,26.1914,-97.0507,1013.5,11111222 
TABS,ioos:station:wmo:42044:1,2015-06-04T23:00:00Z,26.1914,-97.0507,1013.31,11111222 
TABS,ioos:station:wmo:42044:1,2015-06-04T23:30:00Z,26.1914,-97.0507,1013.27,11111222 
TABS,ioos:station:wmo:42044:1,2015-06-05T00:00:00Z,26.1914,-97.0507,1013.33,11111222 
TABS,ioos:station:wmo:42044:1,2015-06-05T00:30:00Z,26.1914,-97.0507,1013.33,11111222 
TABS,ioos:station:wmo:42044:1,2015-06-05T01:00:00Z,26.1914,-97.0507,1013.5,11111222 
TABS,ioos:station:wmo:42044:1,2015-06-05T01:30:00Z,26.1914,-97.0507,1013.76,11111222 
TABS,ioos:station:wmo:42044:1,2015-06-05T02:00:00Z,26.1914,-97.0507,1013.81,11111222 
TABS,ioos:station:wmo:42044:1,2015-06-05T02:30:00Z,26.1914,-97.0507,1014.32,11111222 
TABS,ioos:station:wmo:42044:1,2015-06-05T03:00:00Z,26.1914,-97.0507,1014.45,11111222 
TABS,ioos:station:wmo:42044:1,2015-06-05T03:30:00Z,26.1914,-97.0507,1014.88,11111222 
TABS,ioos:station:wmo:42044:1,2015-06-05T04:00:00Z,26.1914,-97.0507,1015.11,11111222 
TABS,ioos:station:wmo:42044:1,2015-06-05T04:30:00Z,26.1914,-97.0507,1015.2,11111222 
TABS,ioos:station:wmo:42044:1,2015-06-05T05:00:00Z,26.1914,-97.0507,1014.9,11111222 
TABS,ioos:station:wmo:42044:1,2015-06-05T05:30:00Z,26.1914,-97.0507,1014.69,11111222 
TABS,ioos:station:wmo:42044:1,2015-06-05T06:00:00Z,26.1914,-97.0507,1014.77,11111222 
TABS,ioos:station:wmo:42044:1,2015-06-05T06:30:00Z,26.1914,-97.0507,1014.69,11111222 
TABS,ioos:station:wmo:42044:1,2015-06-05T07:00:00Z,26.1914,-97.0507,1014.49,11111222 
TABS,ioos:station:wmo:42044:1,2015-06-05T07:30:00Z,26.1914,-97.0507,1014.25,11111222 
TABS,ioos:station:wmo:42044:1,2015-06-05T08:00:00Z,26.1914,-97.0507,1013.83,11111222 
TABS,ioos:station:wmo:42044:1,2015-06-05T08:30:00Z,26.1914,-97.0507,1013.48,11111222 
TABS,ioos:station:wmo:42044:1,2015-06-05T09:00:00Z,26.1914,-97.0507,1013.61,11111222 
TABS,ioos:station:wmo:42044:1,2015-06-05T09:30:00Z,26.1914,-97.0507,1013.63,11111222 
TABS,ioos:station:wmo:42044:1,2015-06-05T10:00:00Z,26.1914,-97.0507,1013.68,11111222 
TABS,ioos:station:wmo:42044:1,2015-06-05T10:30:00Z,26.1914,-97.0507,1013.79,11111222 
TABS,ioos:station:wmo:42044:1,2015-06-05T11:00:00Z,26.1914,-97.0507,1014.03,11111222 
TABS,ioos:station:wmo:42044:1,2015-06-05T11:30:00Z,26.1914,-97.0507,1013.9,11111222 
TABS,ioos:station:wmo:42044:1,2015-06-05T12:00:00Z,26.1914,-97.0507,1014.2,11111222 
TABS,ioos:station:wmo:42044:1,2015-06-05T12:30:00Z,26.1914,-97.0507,1014.47,11111222 
TABS,ioos:station:wmo:42044:1,2015-06-05T13:00:00Z,26.1914,-97.0507,1014.64,11111222 
TABS,ioos:station:wmo:42044:1,2015-06-05T13:30:00Z,26.1914,-97.0507,1015.07,11111222 
TABS,ioos:station:wmo:42044:1,2015-06-05T14:00:00Z,26.1914,-97.0507,1015.08,11111222 
TABS,ioos:station:wmo:42044:1,2015-06-05T14:30:00Z,26.1914,-97.0507,1015.38,11111222 
TABS,ioos:station:wmo:42044:1,2015-06-05T15:00:00Z,26.1914,-97.0507,1015.55,11111222 
TABS,ioos:station:wmo:42044:1,2015-06-05T15:30:00Z,26.1914,-97.0507,1015.6,11111222 
TABS,ioos:station:wmo:42044:1,2015-06-05T16:00:00Z,26.1914,-97.0507,1015.63,11111222 
TABS,ioos:station:wmo:42044:1,2015-06-05T16:30:00Z,26.1914,-97.0507,1015.87,11111222 
TABS,ioos:station:wmo:42044:1,2015-06-05T17:00:00Z,26.1914,-97.0507,1015.93,11111222 
TABS,ioos:station:wmo:42044:1,2015-06-05T17:30:00Z,26.1914,-97.0507,1015.94,11111222 
TABS,ioos:station:wmo:42044:1,2015-06-05T18:00:00Z,26.1914,-97.0507,1015.78,11111222 
TABS,ioos:station:wmo:42044:1,2015-06-05T18:30:00Z,26.1914,-97.0507,1015.57,11111222 
TABS,ioos:station:wmo:42044:1,2015-06-05T19:00:00Z,26.1914,-97.0507,1015.42,11111222 
TABS,ioos:station:wmo:42044:1,2015-06-05T19:30:00Z,26.1914,-97.0507,1015.25,11111222 
TABS,ioos:station:wmo:42044:1,2015-06-05T20:00:00Z,26.1914,-97.0507,1015.22,11111222 
TABS,ioos:station:wmo:42044:1,2015-06-05T20:30:00Z,26.1914,-97.0507,1015.13,11111222 
TABS,ioos:station:wmo:42044:1,2015-06-05T21:00:00Z,26.1914,-97.0507,1014.8,11111222 
TABS,ioos:station:wmo:42044:1,2015-06-05T21:30:00Z,26.1914,-97.0507,1014.46,11111222 
TABS,ioos:station:wmo:42044:1,2015-06-05T22:00:00Z,26.1914,-97.0507,1014.48,11111222 
TABS,ioos:station:wmo:42044:1,2015-06-05T22:30:00Z,26.1914,-97.0507,1014.38,11111222 
TABS,ioos:station:wmo:42044:1,2015-06-05T23:00:00Z,26.1914,-97.0507,1014.11,11111222 
TABS,ioos:station:wmo:42044:1,2015-06-05T23:30:00Z,26.1914,-97.0507,1013.98,11111222 
TABS,ioos:station:wmo:42044:1,2015-06-06T00:00:00Z,26.1914,-97.0507,1014.16,11111222 
TABS,ioos:station:wmo:42044:1,2015-06-06T00:30:00Z,26.1914,-97.0507,1014.08,11111222 
TABS,ioos:station:wmo:42044:1,2015-06-06T01:00:00Z,26.1914,-97.0507,1014.05,11111222 
TABS,ioos:station:wmo:42044:1,2015-06-06T01:30:00Z,26.1914,-97.0507,1014.38,11111222 
TABS,ioos:station:wmo:42044:1,2015-06-06T02:00:00Z,26.1914,-97.0507,1014.47,11111222 
TABS,ioos:station:wmo:42044:1,2015-06-06T02:30:00Z,26.1914,-97.0507,1014.46,11111222 
TABS,ioos:station:wmo:42044:1,2015-06-06T03:00:00Z,26.1914,-97.0507,1014.41,11111222 
TABS,ioos:station:wmo:42044:1,2015-06-06T03:30:00Z,26.1914,-97.0507,1014.62,11111222 
TABS,ioos:station:wmo:42044:1,2015-06-06T04:00:00Z,26.1914,-97.0507,1014.86,11111222 
TABS,ioos:station:wmo:42044:1,2015-06-06T04:30:00Z,26.1914,-97.0507,1014.38,11111222 
TABS,ioos:station:wmo:42044:1,2015-06-06T05:00:00Z,26.1914,-97.0507,1014.46,11111222 
TABS,ioos:station:wmo:42044:1,2015-06-06T05:30:00Z,26.1914,-97.0507,1014.43,11111222 
TABS,ioos:station:wmo:42044:1,2015-06-06T06:00:00Z,26.1914,-97.0507,1014.41,11111222 
TABS,ioos:station:wmo:42044:1,2015-06-06T06:30:00Z,26.1914,-97.0507,1014.38,11111222 
TABS,ioos:station:wmo:42044:1,2015-06-06T07:00:00Z,26.1914,-97.0507,1014.3,11111222 
TABS,ioos:station:wmo:42044:1,2015-06-06T07:30:00Z,26.1914,-97.0507,1014.22,11111222 
TABS,ioos:station:wmo:42044:1,2015-06-06T08:00:00Z,26.1914,-97.0507,1014.06,11111222 
TABS,ioos:station:wmo:42044:1,2015-06-06T08:30:00Z,26.1914,-97.0507,1014.29,11111222 
TABS,ioos:station:wmo:42044:1,2015-06-06T09:00:00Z,26.1914,-97.0507,1014.49,11111222 
TABS,ioos:station:wmo:42044:1,2015-06-06T09:30:00Z,26.1914,-97.0507,1014.44,11111222 
TABS,ioos:station:wmo:42044:1,2015-06-06T10:00:00Z,26.1914,-97.0507,1014.46,11111222 
TABS,ioos:station:wmo:42044:1,2015-06-06T10:30:00Z,26.1914,-97.0507,1014.54,11111222 
TABS,ioos:station:wmo:42044:1,2015-06-06T11:00:00Z,26.1914,-97.0507,1014.74,11111222 
TABS,ioos:station:wmo:42044:1,2015-06-06T11:30:00Z,26.1914,-97.0507,1014.8,11111222 
TABS,ioos:station:wmo:42044:1,2015-06-06T12:00:00Z,26.1914,-97.0507,1014.95,11111222 
TABS,ioos:station:wmo:42044:1,2015-06-06T12:30:00Z,26.1914,-97.0507,1014.72,11111222 
TABS,ioos:station:wmo:42044:1,2015-06-06T13:00:00Z,26.1914,-97.0507,1015.02,11111222 
TABS,ioos:station:wmo:42044:1,2015-06-06T13:30:00Z,26.1914,-97.0507,1015.17,11111222 
TABS,ioos:station:wmo:42044:1,2015-06-06T14:00:00Z,26.1914,-97.0507,1015.45,11111222 
TABS,ioos:station:wmo:42044:1,2015-06-06T14:30:00Z,26.1914,-97.0507,1015.73,11111222 
TABS,ioos:station:wmo:42044:1,2015-06-06T15:00:00Z,26.1914,-97.0507,1015.85,11111222 
TABS,ioos:station:wmo:42044:1,2015-06-06T15:30:00Z,26.1914,-97.0507,1015.85,11111222 
TABS,ioos:station:wmo:42044:1,2015-06-06T16:00:00Z,26.1914,-97.0507,1015.88,11111222 
TABS,ioos:station:wmo:42044:1,2015-06-06T16:30:00Z,26.1914,-97.0507,1015.76,11111222 
TABS,ioos:station:wmo:42044:1,2015-06-06T17:00:00Z,26.1914,-97.0507,1015.81,11111222 
TABS,ioos:station:wmo:42044:1,2015-06-06T17:30:00Z,26.1914,-97.0507,1015.5,11111222 
TABS,ioos:station:wmo:42044:1,2015-06-06T18:00:00Z,26.1914,-97.0507,1015.34,11111222 
TABS,ioos:station:wmo:42044:1,2015-06-06T18:30:00Z,26.1914,-97.0507,1015.06,11111222 